Location: Niedergestelen
(46.3129°N, 7.7822°E)
Time: 19:06:32
(UTC+00:00)

Cosmos 1939 Rocket - Pass Details

Date: 01 December 2020
Orbit: 532 x 584 km, 97.4° (Epoch: 27 January)

Event Time Altitude Azimuth Distance (km) Brightness Sun altitude
Rises 17:30:15 0° 167° (SSE) 2,672 6.3 -17.7°
Reaches altitude 10° 17:32:20 10° 167° (SSE) 1,791 5.4 -18.0°
Maximum altitude 17:36:12 87° 258° (WSW) 550 2.7 -18.7°
Drops below altitude 10° 17:40:10 10° 347° (NNW) 1,831 5.5 -19.4°
Sets 17:42:19 0° 348° (NNW) 2,739 6.4 -19.7°
